[[{"header":{"parameterUnit":"m.s-1","parameterCategory":1,"la1":30.2992,"la2":30.254,"lo1":-89.0895,"lo2":-89.0443,"dy":0.0025,"dx":0.0025,"nx":19,"ny":19,"refTime":"2026-03-20T21:00:00:Z","depth":0,"parameterNumber":2,"parameterNumberName":"U-component_of_WINDS"},"data":[0,0,0,1.488,1.488,1.4897,1.4897,1.4905,1.4905,0,0,0,0,0,0,0,0,0,0,0,1.4865,1.4865,1.488,1.488,1.4897,1.4897,1.4905,1.4905,0,0,0,0,0,0,0,0,0,0,0,1.4865,1.4865,1.4864,1.488,1.4897,1.4897,1.4905,1.4898,0,0,0,0,0,0,0,0,0,0,1.4884,1.4859,1.4865,1.4864,1.488,1.4897,1.4897,1.4898,1.4898,1.4891,0,1.488,0,1.4893,1.4904,1.4904,0,0,0,1.4888,1.4859,1.4873,1.4864,1.488,1.4897,1.4892,1.4898,1.4899,1.4892,1.4881,1.4881,1.4893,1.4904,1.4904,1.4835,1.4835,0,0,1.4887,1.4862,1.4872,1.4872,1.4867,1.4891,1.4892,1.4899,1.4885,1.4881,1.4882,1.4893,1.4904,1.4904,1.4836,1.4835,0,0,0,1.4879,1.4861,1.4876,1.4872,1.4876,1.4891,1.4892,1.4885,1.4892,1.4882,1.4893,1.4904,1.4904,1.4837,1.4836,1.4776,0,0,0,1.4879,1.4857,1.4875,1.486,1.4875,1.488,1.4878,1.4891,1.4893,1.4893,1.4904,1.4904,1.4838,1.4836,1.4779,1.4751,0,0,0,1.4868,1.4856,1.4854,1.4858,1.4864,1.488,1.4888,1.4892,1.4899,1.4904,1.4904,1.4838,1.4836,1.4782,1.4756,1.4725,0,0,0,1.4848,1.48,1.4853,1.4805,1.4864,1.4843,1.4888,1.4874,1.4872,1.4904,1.4837,1.4836,1.4783,1.4759,1.4728,1.4693,1.4677,0,0,1.4774,1.4791,1.4765,1.4812,1.4776,1.4843,1.4799,1.482,1.4845,1.4838,1.4837,1.4778,1.4756,1.4726,1.4597,1.4583,0,0,0,1.4733,1.4714,1.471,1.4706,1.4722,1.4734,1.4766,1.4775,1.477,1.4835,1.4761,1.4748,1.4732,1.4716,1.4705,1.4692,1.4828,1.4828,1.4828,1.459,1.4625,1.4585,1.4622,1.4619,1.4654,1.4655,1.4673,1.4708,1.4691,1.4687,1.4605,1.4586,1.4577,1.4564,1.4674,1.4674,1.4673,1.4673,1.4484,1.4461,1.4513,1.4492,1.453,1.4514,1.4549,1.4575,1.4566,1.4609,1.4596,1.4637,1.4561,1.4552,1.4669,1.467,1.467,1.4671,1.4671,1.4391,1.4387,1.44,1.4401,1.4399,1.4441,1.4431,1.4467,1.4501,1.4488,1.449,1.4491,1.4495,1.4487,1.4487,1.4487,1.4486,1.4486,1.4486,1.4289,1.4306,1.4292,1.4309,1.4313,1.4324,1.4364,1.437,1.4386,1.4413,1.4413,1.445,1.4548,1.4571,1.4482,1.4482,1.4483,1.4483,1.4484,1.4163,1.4198,1.4177,1.4182,1.4207,1.4204,1.4252,1.4263,1.4274,1.4268,1.4311,1.4378,1.4397,1.4406,1.4425,1.4304,1.4304,1.4304,1.4304,1.4083,1.4098,1.4086,1.4092,1.4102,1.4145,1.4124,1.4156,1.4195,1.4205,1.4229,1.4259,1.4267,1.4281,1.4293,1.4311,1.4163,1.4163,1.4163,1.4007,1.4026,1.3997,1.4036,1.406,1.4081,1.4062,1.4069,1.4122,1.4158,1.4214,1.4219,1.4267,1.4281,1.4313,1.4331,1.4365,0,0]},{"header":{"parameterUnit":"m.s-1","parameterCategory":1,"la1":30.2992,"la2":30.254,"lo1":-89.0895,"lo2":-89.0443,"dy":0.0025,"dx":0.0025,"nx":19,"ny":19,"refTime":"2026-03-20T21:00:00:Z","depth":0,"parameterNumber":3,"parameterNumberName":"V-component_of_WINDS"},"data":[0,0,0,3.9865,3.9868,3.999,3.999,4.0125,4.0126,0,0,0,0,0,0,0,0,0,0,0,3.982,3.9821,3.9865,3.9868,3.999,3.999,4.0124,4.0126,0,0,0,0,0,0,0,0,0,0,0,3.982,3.9821,3.9822,3.9868,3.999,3.999,4.0124,4.0039,0,0,0,0,0,0,0,0,0,0,3.9923,3.9875,3.9821,3.9822,3.9869,3.9989,3.999,4.0035,4.0044,4.0061,0,4.0078,0,4.0104,4.0134,4.0134,0,0,0,3.9873,3.9867,3.9908,3.9822,3.987,3.9989,3.9936,4.004,4.005,4.0073,4.0081,4.0086,4.0107,4.0134,4.0135,4.0228,4.0229,0,0,3.9866,3.9836,3.9901,3.9915,3.9899,3.9932,3.994,4.0047,4.0051,4.0081,4.0089,4.0109,4.0135,4.0136,4.0228,4.0228,0,0,0,3.9844,3.9831,3.9871,3.9909,3.9933,3.9936,3.9945,4.0046,4.0062,4.0091,4.011,4.0136,4.0137,4.0228,4.0228,4.0211,0,0,0,3.984,3.9818,3.9867,3.985,3.993,3.9992,3.9941,4.0054,4.0067,4.011,4.0136,4.0139,4.0228,4.0228,4.0211,4.0206,0,0,0,3.9815,3.9815,3.9831,3.9848,3.99,3.9991,4.0013,4.0058,4.0079,4.0134,4.0139,4.0228,4.0228,4.0211,4.0207,4.0223,0,0,0,3.9779,3.981,3.983,3.9872,3.9899,3.998,4.0012,4.0073,4.0118,4.0137,4.0228,4.0228,4.0211,4.0207,4.0223,4.0232,4.0233,0,0,3.9801,3.9812,3.9839,3.986,3.9931,3.9964,4.0031,4.0098,4.0128,4.0192,4.0195,4.0211,4.0207,4.0223,4.0249,4.025,0,0,0,3.9835,3.9855,3.988,3.9924,3.998,4.0026,4.0088,4.0113,4.0169,4.0157,4.0222,4.022,4.0231,4.0236,4.0237,4.0248,4.023,4.023,4.023,3.9822,3.9863,3.9911,3.9967,4.0009,4.0073,4.011,4.0154,4.018,4.0195,4.0214,4.0225,4.0231,4.0231,4.0242,4.0222,4.0222,4.0222,4.0221,3.9858,3.9892,3.9929,3.9989,4.0031,4.008,4.0142,4.0159,4.0208,4.0214,4.0225,4.0227,4.0231,4.0242,4.0221,4.0221,4.0221,4.0221,4.0221,3.9854,3.9878,3.9911,3.998,4.0028,4.0082,4.0129,4.0164,4.0197,4.0208,4.0232,4.0233,4.0237,4.0217,4.0217,4.0218,4.0218,4.0218,4.0218,3.9836,3.9875,3.9913,3.9976,4.001,4.0058,4.0123,4.0156,4.02,4.0222,4.0222,4.0246,4.0224,4.0218,4.0218,4.0218,4.0218,4.0218,4.0218,3.9858,3.9859,3.9918,3.9952,4.0029,4.0074,4.012,4.0183,4.0215,4.0236,4.0259,4.0237,4.0249,4.0248,4.0244,4.025,4.025,4.025,4.025,3.9854,3.9865,3.9934,3.9986,4.0041,4.0089,4.015,4.0201,4.0252,4.0273,4.0278,4.0274,4.0272,4.0285,4.0284,4.028,4.0296,4.0296,4.0296,3.9869,3.9888,3.9935,3.9991,4.0054,4.0106,4.0165,4.022,4.0278,4.0298,4.0291,4.0289,4.0284,4.028,4.03,4.0298,4.0291,0,0]}]]